STARLINK-11318, 61252

Orbit data source: Space-Track

STARLINK-11318, 61252 is a payload satellite owned by SpaceX/Seattle (US) in LEO that was launched on Wed, 25 Sep 2024 UTC via an FALCON 9 launch vehicle from the Air Force Western Test Range (AFWTR). Payload-class satellites include a variety of spacecraft equipped with specific instruments for various scientific and technological missions. These include communications satellites like Starlink; space stations such as the ISS; scientific satellites like the Hubble; Earth observation satellites from companies like Planet Labs, Umbra, and HawkEye 360; GPS; miniature CubeSats for education and research; and military/defense satellites.

Loading next visibility...
Identifier
61252, 2024-175K
Orbit
LEO
Country
Flag of USUS
Related business
Manufacturer
SpaceX/Seattle
Mission
Operational Commercial Communications
Bus & Motor
STARLINK V2MD, Unknown motor
Mass
960 kg wet, ~910 kg dry
Launch date (UTC)
2024-09-25 (2 years ago)
Launch vehicle
FALCON 9
Launch site
Air Force Western Test Range (AFWTR)
Object type
Payload
Rocket body
Debris
Shape & HBR
Box + 2 Pan, 18.1 m
Radar Cross Section
36.964 m², Large (>1 m²)

Expand to show TLE details & history
Last TLE update: 9 hours ago

TLE from 9 hours ago
0 STARLINK-11318
1 61252U 24175K   26125.23170353  .00000924  00000-0  12481-4 0  9990
2 61252  53.1601 137.7813 0001130  76.6202 283.4942 15.69714280 93414
Epoch: 2026-05-05T05:33Z
TLE epoch observation values (Epoch: 2026-05-05T05:33:39.184Z)
Latitude
-0.00004°
Longitude
-168.7415°
Altitude
360.452 km
Speed
7.694 km/s
True Right ascension
09h 11m 07s
True Declination
0° 00' 00"
Sunlit
Object was in daylight at epoch
Visualization orbit readout
Latitude
Unknown
Longitude
Unknown
Altitude
Unknown
Speed
Unknown
Apparent Right ascension
Unknown
Apparent Declination
Unknown
Sunlit
N/A
Visualization observer readout
Local Sidereal Time
22:16:56
Azimuth
Unknown
Elevation
Unknown
Doppler factor
Unknown
Orbital elements
Apogee altitude
360.737 km
Perigee altitude
359.214 km
Semi-major axis
6,738.112 km
Eccentricity
0.00011
Inclination
53.1601°
RAAN
137.7813°
Arg. of periapsis
76.6202°
True anomaly
283.48161°
Mean anomaly
283.4942°
Eccentric anomaly
283.4879°
Mean motion
3.92406 °/min
Orbital period
91.74 mins
BSTAR
0.000012481
Loading maneuver chart data...
Computing Atmospheric mass density...
Loading historical data...
Loading historical data...
Loading historical data...
Loading historical data...
Loading historical data...
Loading historical data...
Loading historical data...

Documentation

Showing up to 5 results
|